This is the latest recevied weather packets stored in our database for station/object WA4TPR. If no packets are shown the sender has not sent any weather packets the latest 10 day(s).
| Time | Temp. | Humidity | Pressure | Rain* | Wind** | Luminosity | Snow |
|---|---|---|---|---|---|---|---|
| 1778175795 | 32.22° C | 55% | 1019.5 hPa | 0 mm | - | 898 W/m² | - |
| 1778175492 | 32.22° C | 56% | 1019.7 hPa | 0 mm | - | 932 W/m² | - |
| 1778175189 | 31.67° C | 59% | 1019.7 hPa | 0 mm | - | 974 W/m² | - |
| 1778174886 | 31.67° C | 58% | 1019.8 hPa | 0 mm | - | 935 W/m² | - |
| 1778174583 | 32.22° C | 56% | 1019.7 hPa | 0 mm | - | 918 W/m² | - |
| 1778174278 | 32.22° C | 54% | 1019.7 hPa | 0 mm | - | 237 W/m² | - |
| 1778173975 | 31.67° C | 56% | 1019.6 hPa | 0 mm | - | 890 W/m² | - |
| 1778173672 | 31.67° C | 57% | 1019.6 hPa | 0 mm | - | 851 W/m² | - |
| 1778173369 | 32.22° C | 55% | 1019.5 hPa | 0 mm | - | 856 W/m² | - |
| 1778173064 | 31.67° C | 57% | 1019.9 hPa | 0 mm | - | 333 W/m² | - |
| 1778172761 | 31.11° C | 58% | 1019.8 hPa | 0 mm | - | 902 W/m² | - |
| 1778172457 | 31.67° C | 56% | 1019.9 hPa | 0 mm | - | 827 W/m² | - |
| 1778172154 | 32.22° C | 58% | 1020 hPa | 0 mm | - | 845 W/m² | - |
| 1778171851 | 31.11° C | 59% | 1020.1 hPa | 0 mm | - | 875 W/m² | - |
| 1778171549 | 31.11° C | 59% | 1020.3 hPa | 0 mm | - | 229 W/m² | - |
| 1778171245 | 31.67° C | 59% | 1020.2 hPa | 0 mm | - | 831 W/m² | - |
| 1778170941 | 31.11° C | 57% | 1020.3 hPa | 0 mm | - | 835 W/m² | - |
| 1778170638 | 31.67° C | 61% | 1020.2 hPa | 0 mm | - | 231 W/m² | - |
| 1778170334 | 31.67° C | 62% | 1020.2 hPa | 0 mm | - | 826 W/m² | - |
| 1778170030 | 30° C | 64% | 1020.3 hPa | 0 mm | - | 843 W/m² | - |
| 1778169727 | 30° C | 64% | 1020.5 hPa | 0 mm | - | 836 W/m² | - |
| 1778169423 | 30.56° C | 65% | 1020.6 hPa | 0 mm | - | 538 W/m² | - |
| 1778169119 | 31.67° C | 63% | 1020.4 hPa | 0 mm | - | 825 W/m² | - |
| 1778168816 | 31.67° C | 62% | 1020.5 hPa | 0 mm | - | 669 W/m² | - |
| 1778168514 | 31.67° C | 63% | 1020.4 hPa | 0 mm | - | 797 W/m² | - |
* Rain latest hour (hover to see other rain measurements)
** Current wind speed in m/s (hover to see current wind gust speed)